Year,Month,Day,Hour,Minute,Value (Times are PST for temperature in C)
2012,01,15,00,00,-2.70
2012,01,15,00,01,-2.70
2012,01,15,00,02,-2.70
2012,01,15,00,03,-2.70
2012,01,15,00,04,-2.70
2012,01,15,00,05,-2.80
2012,01,15,00,06,-2.70
2012,01,15,00,07,-2.70
2012,01,15,00,08,-2.70
2012,01,15,00,09,-2.60
2012,01,15,00,10,-2.60
2012,01,15,00,11,-2.60
2012,01,15,00,12,-2.60
2012,01,15,00,13,-2.50
2012,01,15,00,14,-2.50
2012,01,15,00,15,-2.50
2012,01,15,00,16,-2.40
2012,01,15,00,17,-2.40
2012,01,15,00,18,-2.40
2012,01,15,00,19,-2.40
2012,01,15,00,20,-2.40
2012,01,15,00,21,-2.50
2012,01,15,00,22,-2.50
2012,01,15,00,23,-2.50
2012,01,15,00,24,-2.50
2012,01,15,00,25,-2.50
2012,01,15,00,26,-2.50
2012,01,15,00,27,-2.50
2012,01,15,00,28,-2.50
2012,01,15,00,29,-2.50
2012,01,15,00,30,-2.50
2012,01,15,00,31,-2.40
2012,01,15,00,32,-2.40
2012,01,15,00,33,-2.40
2012,01,15,00,34,-2.40
2012,01,15,00,35,-2.40
2012,01,15,00,36,-2.50
2012,01,15,00,37,-2.50
2012,01,15,00,38,-2.40
2012,01,15,00,39,-2.40
2012,01,15,00,40,-2.40
2012,01,15,00,41,-2.40
2012,01,15,00,42,-2.40
2012,01,15,00,43,-2.30
2012,01,15,00,44,-2.30
2012,01,15,00,45,-2.30
2012,01,15,00,46,-2.30
2012,01,15,00,47,-2.30
2012,01,15,00,48,-2.30
2012,01,15,00,49,-2.30
2012,01,15,00,50,-2.30
2012,01,15,00,51,-2.30
2012,01,15,00,52,-2.30
2012,01,15,00,53,-2.20
2012,01,15,00,54,-2.20
2012,01,15,00,55,-2.20
2012,01,15,00,56,-2.30
2012,01,15,00,57,-2.30
2012,01,15,00,58,-2.30
2012,01,15,00,59,-2.30
2012,01,15,01,00,-2.30
2012,01,15,01,01,-2.40
2012,01,15,01,02,-2.40
2012,01,15,01,03,-2.40
2012,01,15,01,04,-2.50
2012,01,15,01,05,-2.50
2012,01,15,01,06,-2.60
2012,01,15,01,07,-2.60
2012,01,15,01,08,-2.60
2012,01,15,01,09,-2.60
2012,01,15,01,10,-2.70
2012,01,15,01,11,-2.70
2012,01,15,01,12,-2.70
2012,01,15,01,13,-2.80
2012,01,15,01,14,-2.80
2012,01,15,01,15,-2.80
2012,01,15,01,16,-2.80
2012,01,15,01,17,-2.90
2012,01,15,01,18,-2.90
2012,01,15,01,19,-2.90
2012,01,15,01,20,-2.90
2012,01,15,01,21,-2.90
2012,01,15,01,22,-3.00
2012,01,15,01,23,-3.00
2012,01,15,01,24,-3.00
2012,01,15,01,25,-3.00
2012,01,15,01,26,-3.00
2012,01,15,01,27,-3.10
2012,01,15,01,28,-3.10
2012,01,15,01,29,-3.10
2012,01,15,01,30,-3.10
2012,01,15,01,31,-3.10
2012,01,15,01,32,-3.20
2012,01,15,01,33,-3.20
2012,01,15,01,34,-3.10
2012,01,15,01,35,-3.10
2012,01,15,01,36,-3.00
2012,01,15,01,37,-3.00
2012,01,15,01,38,-2.90
2012,01,15,01,39,-2.80
2012,01,15,01,40,-2.80
2012,01,15,01,41,-2.70
2012,01,15,01,42,-2.70
2012,01,15,01,43,-2.60
2012,01,15,01,44,-2.60
2012,01,15,01,45,-2.50
2012,01,15,01,46,-2.50
2012,01,15,01,47,-2.40
2012,01,15,01,48,-2.40
2012,01,15,01,49,-2.40
2012,01,15,01,50,-2.40
2012,01,15,01,51,-2.40
2012,01,15,01,52,-2.40
2012,01,15,01,53,-2.30
2012,01,15,01,54,-2.30
2012,01,15,01,55,-2.30
2012,01,15,01,56,-2.30
2012,01,15,01,57,-2.30
2012,01,15,01,58,-2.30
2012,01,15,01,59,-2.30
2012,01,15,02,00,-2.30
2012,01,15,02,01,-2.30
2012,01,15,02,02,-2.30
2012,01,15,02,03,-2.30
2012,01,15,02,04,-2.30
2012,01,15,02,05,-2.30
2012,01,15,02,06,-2.40
2012,01,15,02,07,-2.40
2012,01,15,02,08,-2.40
2012,01,15,02,09,-2.50
2012,01,15,02,10,-2.50
2012,01,15,02,11,-2.50
2012,01,15,02,12,-2.60
2012,01,15,02,13,-2.60
2012,01,15,02,14,-2.60
2012,01,15,02,15,-2.60
2012,01,15,02,16,-2.60
2012,01,15,02,17,-2.70
2012,01,15,02,18,-2.70
2012,01,15,02,19,-2.70
2012,01,15,02,20,-2.70
2012,01,15,02,21,-2.80
2012,01,15,02,22,-2.80
2012,01,15,02,23,-2.80
2012,01,15,02,24,-2.90
2012,01,15,02,25,-2.90
2012,01,15,02,26,-2.90
2012,01,15,02,27,-2.90
2012,01,15,02,28,-3.00
2012,01,15,02,29,-3.00
2012,01,15,02,30,-3.10
2012,01,15,02,31,-3.10
2012,01,15,02,32,-3.10
2012,01,15,02,33,-3.20
2012,01,15,02,34,-3.20
2012,01,15,02,35,-3.20
2012,01,15,02,36,-3.20
2012,01,15,02,37,-3.20
2012,01,15,02,38,-3.30
2012,01,15,02,39,-3.30
2012,01,15,02,40,-3.30
2012,01,15,02,41,-3.30
2012,01,15,02,42,-3.30
2012,01,15,02,43,-3.30
2012,01,15,02,44,-3.30
2012,01,15,02,45,-3.30
2012,01,15,02,46,-3.40
2012,01,15,02,47,-3.40
2012,01,15,02,48,-3.40
2012,01,15,02,49,-3.40
2012,01,15,02,50,-3.40
2012,01,15,02,51,-3.40
2012,01,15,02,52,-3.50
2012,01,15,02,53,-3.50
2012,01,15,02,54,-3.60
2012,01,15,02,55,-3.60
2012,01,15,02,56,-3.60
2012,01,15,02,57,-3.70
2012,01,15,02,58,-3.70
2012,01,15,02,59,-3.70
2012,01,15,03,00,-3.70
2012,01,15,03,01,-3.80
2012,01,15,03,02,-3.80
2012,01,15,03,03,-3.80
2012,01,15,03,04,-3.80
2012,01,15,03,05,-3.80
2012,01,15,03,06,-3.80
2012,01,15,03,07,-3.80
2012,01,15,03,08,-3.80
2012,01,15,03,09,-3.80
2012,01,15,03,10,-3.80
2012,01,15,03,11,-3.80
2012,01,15,03,12,-3.80
2012,01,15,03,13,-3.80
2012,01,15,03,14,-3.80
2012,01,15,03,15,-3.80
2012,01,15,03,16,-3.80
2012,01,15,03,17,-3.90
2012,01,15,03,18,-3.90
2012,01,15,03,19,-3.90
2012,01,15,03,20,-3.90
2012,01,15,03,21,-3.90
2012,01,15,03,22,-3.80
2012,01,15,03,23,-3.80
2012,01,15,03,24,-3.90
2012,01,15,03,25,-3.90
2012,01,15,03,26,-3.90
2012,01,15,03,27,-3.90
2012,01,15,03,28,-3.90
2012,01,15,03,29,-3.90
2012,01,15,03,30,-3.90
2012,01,15,03,31,-3.90
2012,01,15,03,32,-3.90
2012,01,15,03,33,-3.90
2012,01,15,03,34,-3.90
2012,01,15,03,35,-3.90
2012,01,15,03,36,-3.90
2012,01,15,03,37,-3.90
2012,01,15,03,38,-3.90
2012,01,15,03,39,-3.80
2012,01,15,03,40,-3.80
2012,01,15,03,41,-3.90
2012,01,15,03,42,-3.90
2012,01,15,03,43,-3.90
2012,01,15,03,44,-3.90
2012,01,15,03,45,-3.90
2012,01,15,03,46,-3.90
2012,01,15,03,47,-3.90
2012,01,15,03,48,-3.90
2012,01,15,03,49,-3.90
2012,01,15,03,50,-3.90
2012,01,15,03,51,-3.90
2012,01,15,03,52,-3.90
2012,01,15,03,53,-3.90
2012,01,15,03,54,-3.90
2012,01,15,03,55,-3.90
2012,01,15,03,56,-3.90
2012,01,15,03,57,-3.90
2012,01,15,03,58,-3.90
2012,01,15,03,59,-3.90
2012,01,15,04,00,-3.90
2012,01,15,04,01,-3.90
2012,01,15,04,02,-3.90
2012,01,15,04,03,-3.90
2012,01,15,04,04,-3.90
2012,01,15,04,05,-3.90
2012,01,15,04,06,-3.90
2012,01,15,04,07,-3.90
2012,01,15,04,08,-3.90
2012,01,15,04,09,-3.90
2012,01,15,04,10,-3.90
2012,01,15,04,11,-3.90
2012,01,15,04,12,-3.80
2012,01,15,04,13,-3.80
2012,01,15,04,14,-3.80
2012,01,15,04,15,-3.70
2012,01,15,04,16,-3.70
2012,01,15,04,17,-3.60
2012,01,15,04,18,-3.60
2012,01,15,04,19,-3.50
2012,01,15,04,20,-3.40
2012,01,15,04,21,-3.40
2012,01,15,04,22,-3.40
2012,01,15,04,23,-3.40
2012,01,15,04,24,-3.30
2012,01,15,04,25,-3.30
2012,01,15,04,26,-3.30
2012,01,15,04,27,-3.30
2012,01,15,04,28,-3.30
2012,01,15,04,29,-3.20
2012,01,15,04,30,-3.20
2012,01,15,04,31,-3.20
2012,01,15,04,32,-3.20
2012,01,15,04,33,-3.20
2012,01,15,04,34,-3.20
2012,01,15,04,35,-3.20
2012,01,15,04,36,-3.20
2012,01,15,04,37,-3.20
2012,01,15,04,38,-3.30
2012,01,15,04,39,-3.30
2012,01,15,04,40,-3.30
2012,01,15,04,41,-3.30
2012,01,15,04,42,-3.30
2012,01,15,04,43,-3.30
2012,01,15,04,44,-3.30
2012,01,15,04,45,-3.30
2012,01,15,04,46,-3.30
2012,01,15,04,47,-3.30
2012,01,15,04,48,-3.40
2012,01,15,04,49,-3.40
2012,01,15,04,50,-3.40
2012,01,15,04,51,-3.40
2012,01,15,04,52,-3.50
2012,01,15,04,53,-3.50
2012,01,15,04,54,-3.50
2012,01,15,04,55,-3.50
2012,01,15,04,56,-3.50
2012,01,15,04,57,-3.50
2012,01,15,04,58,-3.50
2012,01,15,04,59,-3.50
2012,01,15,05,00,-3.50
2012,01,15,05,01,-3.50
2012,01,15,05,02,-3.50
2012,01,15,05,03,-3.50
2012,01,15,05,04,-3.50
2012,01,15,05,05,-3.60
2012,01,15,05,06,-3.60
2012,01,15,05,07,-3.60
2012,01,15,05,08,-3.60
2012,01,15,05,09,-3.60
2012,01,15,05,10,-3.60
2012,01,15,05,11,-3.70
2012,01,15,05,12,-3.70
2012,01,15,05,13,-3.70
2012,01,15,05,14,-3.70
2012,01,15,05,15,-3.70
2012,01,15,05,16,-3.70
2012,01,15,05,17,-3.80
2012,01,15,05,18,-3.80
2012,01,15,05,19,-3.80
2012,01,15,05,20,-3.80
2012,01,15,05,21,-3.80
2012,01,15,05,22,-3.80
2012,01,15,05,23,-3.80
2012,01,15,05,24,-3.70
2012,01,15,05,25,-3.70
2012,01,15,05,26,-3.70
2012,01,15,05,27,-3.70
2012,01,15,05,28,-3.80
2012,01,15,05,29,-3.80
2012,01,15,05,30,-3.80
2012,01,15,05,31,-3.70
2012,01,15,05,32,-3.70
2012,01,15,05,33,-3.70
2012,01,15,05,34,-3.70
2012,01,15,05,35,-3.70
2012,01,15,05,36,-3.70
2012,01,15,05,37,-3.70
2012,01,15,05,38,-3.70
2012,01,15,05,39,-3.70
2012,01,15,05,40,-3.70
2012,01,15,05,41,-3.80
2012,01,15,05,42,-3.80
2012,01,15,05,43,-3.80
2012,01,15,05,44,-3.80
2012,01,15,05,45,-3.80
2012,01,15,05,46,-3.80
2012,01,15,05,47,-3.80
2012,01,15,05,48,-3.90
2012,01,15,05,49,-3.90
2012,01,15,05,50,-3.90
2012,01,15,05,51,-3.90
2012,01,15,05,52,-3.90
2012,01,15,05,53,-4.00
2012,01,15,05,54,-4.00
2012,01,15,05,55,-4.10
2012,01,15,05,56,-4.10
2012,01,15,05,57,-4.10
2012,01,15,05,58,-4.20
2012,01,15,05,59,-4.20
2012,01,15,06,00,-4.20
2012,01,15,06,01,-4.20
2012,01,15,06,02,-4.30
2012,01,15,06,03,-4.30
2012,01,15,06,04,-4.30
2012,01,15,06,05,-4.30
2012,01,15,06,06,-4.30
2012,01,15,06,07,-4.40
2012,01,15,06,08,-4.40
2012,01,15,06,09,-4.40
2012,01,15,06,10,-4.40
2012,01,15,06,11,-4.40
2012,01,15,06,12,-4.40
2012,01,15,06,13,-4.40
2012,01,15,06,14,-4.40
2012,01,15,06,15,-4.40
2012,01,15,06,16,-4.40
2012,01,15,06,17,-4.40
2012,01,15,06,18,-4.40
2012,01,15,06,19,-4.40
2012,01,15,06,20,-4.40
2012,01,15,06,21,-4.50
2012,01,15,06,22,-4.50
2012,01,15,06,23,-4.50
2012,01,15,06,24,-4.50
2012,01,15,06,25,-4.50
2012,01,15,06,26,-4.50
2012,01,15,06,27,-4.50
2012,01,15,06,28,-4.50
2012,01,15,06,29,-4.60
2012,01,15,06,30,-4.60
2012,01,15,06,31,-4.60
2012,01,15,06,32,-4.60
2012,01,15,06,33,-4.60
2012,01,15,06,34,-4.60
2012,01,15,06,35,-4.70
2012,01,15,06,36,-4.70
2012,01,15,06,37,-4.70
2012,01,15,06,38,-4.70
2012,01,15,06,39,-4.70
2012,01,15,06,40,-4.70
2012,01,15,06,41,-4.70
2012,01,15,06,42,-4.70
2012,01,15,06,43,-4.70
2012,01,15,06,44,-4.70
2012,01,15,06,45,-4.70
2012,01,15,06,46,-4.70
2012,01,15,06,47,-4.70
2012,01,15,06,48,-4.70
2012,01,15,06,49,-4.70
2012,01,15,06,50,-4.70
2012,01,15,06,51,-4.70
2012,01,15,06,52,-4.70
2012,01,15,06,53,-4.70
2012,01,15,06,54,-4.70
2012,01,15,06,55,-4.70
2012,01,15,06,56,-4.70
2012,01,15,06,57,-4.70
2012,01,15,06,58,-4.70
2012,01,15,06,59,-4.70
2012,01,15,07,00,-4.70
2012,01,15,07,01,-4.70
2012,01,15,07,02,-4.80
2012,01,15,07,03,-4.80
2012,01,15,07,04,-4.80
2012,01,15,07,05,-4.80
2012,01,15,07,06,-4.80
2012,01,15,07,07,-4.80
2012,01,15,07,08,-4.80
2012,01,15,07,09,-4.80
2012,01,15,07,10,-4.80
2012,01,15,07,11,-4.80
2012,01,15,07,12,-4.80
2012,01,15,07,13,-4.90
2012,01,15,07,14,-4.90
2012,01,15,07,15,-4.90
2012,01,15,07,16,-4.90
2012,01,15,07,17,-4.90
2012,01,15,07,18,-4.90
2012,01,15,07,19,-4.90
2012,01,15,07,20,-4.90
2012,01,15,07,21,-4.90
2012,01,15,07,22,-4.90
2012,01,15,07,23,-4.90
2012,01,15,07,24,-4.90
2012,01,15,07,25,-4.90
2012,01,15,07,26,-4.90
2012,01,15,07,27,-4.90
2012,01,15,07,28,-4.90
2012,01,15,07,29,-4.90
2012,01,15,07,30,-4.90
2012,01,15,07,31,-5.00
2012,01,15,07,32,-5.00
2012,01,15,07,33,-5.00
2012,01,15,07,34,-5.00
2012,01,15,07,35,-5.00
2012,01,15,07,36,-4.90
2012,01,15,07,37,-4.90
2012,01,15,07,38,-4.90
2012,01,15,07,39,-4.90
2012,01,15,07,40,-4.90
2012,01,15,07,41,-4.90
2012,01,15,07,42,-4.90
2012,01,15,07,43,-4.90
2012,01,15,07,44,-4.90
2012,01,15,07,45,-4.90
2012,01,15,07,46,-4.90
2012,01,15,07,47,-4.90
2012,01,15,07,48,-4.80
2012,01,15,07,49,-4.80
2012,01,15,07,50,-4.80
2012,01,15,07,51,-4.80
2012,01,15,07,52,-4.80
2012,01,15,07,53,-4.80
2012,01,15,07,54,-4.80
2012,01,15,07,55,-4.80
2012,01,15,07,56,-4.80
2012,01,15,07,57,-4.80
2012,01,15,07,58,-4.80
2012,01,15,07,59,-4.80
2012,01,15,08,00,-4.80
2012,01,15,08,01,-4.80
2012,01,15,08,02,-4.80
2012,01,15,08,03,-4.80
2012,01,15,08,04,-4.80
2012,01,15,08,05,-4.80
2012,01,15,08,06,-4.80
2012,01,15,08,07,-4.80
2012,01,15,08,08,-4.80
2012,01,15,08,09,-4.90
2012,01,15,08,10,-4.90
2012,01,15,08,11,-4.90
2012,01,15,08,12,-4.90
2012,01,15,08,13,-4.90
2012,01,15,08,14,-4.90
2012,01,15,08,15,-5.00
2012,01,15,08,16,-5.00
2012,01,15,08,17,-5.00
2012,01,15,08,18,-5.00
2012,01,15,08,19,-5.00
2012,01,15,08,20,-5.10
2012,01,15,08,21,-5.10
2012,01,15,08,22,-5.10
2012,01,15,08,23,-5.10
2012,01,15,08,24,-5.10
2012,01,15,08,25,-5.10
2012,01,15,08,26,-5.10
2012,01,15,08,27,-5.10
2012,01,15,08,28,-5.20
2012,01,15,08,29,-5.20
2012,01,15,08,30,-5.20
2012,01,15,08,31,-5.10
2012,01,15,08,32,-5.10
2012,01,15,08,33,-5.00
2012,01,15,08,34,-5.00
2012,01,15,08,35,-5.00
2012,01,15,08,36,-5.00
2012,01,15,08,37,-4.90
2012,01,15,08,38,-4.90
2012,01,15,08,39,-4.90
2012,01,15,08,40,-4.90
2012,01,15,08,41,-4.80
2012,01,15,08,42,-4.80
2012,01,15,08,43,-4.80
2012,01,15,08,44,-4.80
2012,01,15,08,45,-4.80
2012,01,15,08,46,-4.80
2012,01,15,08,47,-4.80
2012,01,15,08,48,-4.80
2012,01,15,08,49,-4.80
2012,01,15,08,50,-4.80
2012,01,15,08,51,-4.80
2012,01,15,08,52,-4.80
2012,01,15,08,53,-4.80
2012,01,15,08,54,-4.80
2012,01,15,08,55,-4.80
2012,01,15,08,56,-4.80
2012,01,15,08,57,-4.80
2012,01,15,08,58,-4.80
2012,01,15,08,59,-4.80
2012,01,15,09,00,-4.80
2012,01,15,09,01,-4.80
2012,01,15,09,02,-4.80
2012,01,15,09,03,-4.80
2012,01,15,09,04,-4.80
2012,01,15,09,05,-4.70
2012,01,15,09,06,-4.70
2012,01,15,09,07,-4.70
2012,01,15,09,08,-4.70
2012,01,15,09,09,-4.70
2012,01,15,09,10,-4.70
2012,01,15,09,11,-4.70
2012,01,15,09,12,-4.70
2012,01,15,09,13,-4.70
2012,01,15,09,14,-4.60
2012,01,15,09,15,-4.60
2012,01,15,09,16,-4.60
2012,01,15,09,17,-4.60
2012,01,15,09,18,-4.60
2012,01,15,09,19,-4.60
2012,01,15,09,20,-4.50
2012,01,15,09,21,-4.50
2012,01,15,09,22,-4.50
2012,01,15,09,23,-4.50
2012,01,15,09,24,-4.50
2012,01,15,09,25,-4.50
2012,01,15,09,26,-4.40
2012,01,15,09,27,-4.40
2012,01,15,09,28,-4.40
2012,01,15,09,29,-4.40
2012,01,15,09,30,-4.40
2012,01,15,09,31,-4.40
2012,01,15,09,32,-4.30
2012,01,15,09,33,-4.30
2012,01,15,09,34,-4.30
2012,01,15,09,35,-4.30
2012,01,15,09,36,-4.30
2012,01,15,09,37,-4.30
2012,01,15,09,38,-4.30
2012,01,15,09,39,-4.20
2012,01,15,09,40,-4.20
2012,01,15,09,41,-4.20
2012,01,15,09,42,-4.20
2012,01,15,09,43,-4.20
2012,01,15,09,44,-4.20
2012,01,15,09,45,-4.20
2012,01,15,09,46,-4.10
2012,01,15,09,47,-4.10
2012,01,15,09,48,-4.10
2012,01,15,09,49,-4.10
2012,01,15,09,50,-4.10
2012,01,15,09,51,-4.10
2012,01,15,09,52,-4.10
2012,01,15,09,53,-4.00
2012,01,15,09,54,-4.00
2012,01,15,09,55,-4.00
2012,01,15,09,56,-3.90
2012,01,15,09,57,-3.90
2012,01,15,09,58,-3.80
2012,01,15,09,59,-3.80
2012,01,15,10,00,-3.80
2012,01,15,10,01,-3.80
2012,01,15,10,02,-3.70
2012,01,15,10,03,-3.70
2012,01,15,10,04,-3.70
2012,01,15,10,05,-3.60
2012,01,15,10,06,-3.60
2012,01,15,10,07,-3.60
2012,01,15,10,08,-3.60
2012,01,15,10,09,-3.60
2012,01,15,10,10,-3.50
2012,01,15,10,11,-3.50
2012,01,15,10,12,-3.50
2012,01,15,10,13,-3.40
2012,01,15,10,14,-3.40
2012,01,15,10,15,-3.30
2012,01,15,10,16,-3.30
2012,01,15,10,17,-3.30
2012,01,15,10,18,-3.20
2012,01,15,10,19,-3.20
2012,01,15,10,20,-3.20
2012,01,15,10,21,-3.20
2012,01,15,10,22,-3.20
2012,01,15,10,23,-3.20
2012,01,15,10,24,-3.10
2012,01,15,10,25,-3.10
2012,01,15,10,26,-3.10
2012,01,15,10,27,-3.00
2012,01,15,10,28,-3.00
2012,01,15,10,29,-2.90
2012,01,15,10,30,-2.90
2012,01,15,10,31,-2.80
2012,01,15,10,32,-2.70
2012,01,15,10,33,-2.70
2012,01,15,10,34,-2.60
2012,01,15,10,35,-2.60
2012,01,15,10,36,-2.50
2012,01,15,10,37,-2.40
2012,01,15,10,38,-2.40
2012,01,15,10,39,-2.40
2012,01,15,10,40,-2.30
2012,01,15,10,41,-2.30
2012,01,15,10,42,-2.30
2012,01,15,10,43,-2.30
2012,01,15,10,44,-2.20
2012,01,15,10,45,-2.20
2012,01,15,10,46,-2.20
2012,01,15,10,47,-2.20
2012,01,15,10,48,-2.10
2012,01,15,10,49,-2.10
2012,01,15,10,50,-2.10
2012,01,15,10,51,-2.00
2012,01,15,10,52,-2.00
2012,01,15,10,53,-1.90
2012,01,15,10,54,-1.90
2012,01,15,10,55,-1.90
2012,01,15,10,56,-1.90
2012,01,15,10,57,-1.80
2012,01,15,10,58,-1.80
2012,01,15,10,59,-1.80
2012,01,15,11,00,-1.70
2012,01,15,11,01,-1.70
2012,01,15,11,02,-1.60
2012,01,15,11,03,-1.60
2012,01,15,11,04,-1.50
2012,01,15,11,05,-1.50
2012,01,15,11,06,-1.50
2012,01,15,11,07,-1.40
2012,01,15,11,08,-1.40
2012,01,15,11,09,-1.40
2012,01,15,11,10,-1.30
2012,01,15,11,11,-1.30
2012,01,15,11,12,-1.20
2012,01,15,11,13,-1.20
2012,01,15,11,14,-1.20
2012,01,15,11,15,-1.10
2012,01,15,11,16,-1.10
2012,01,15,11,17,-1.00
2012,01,15,11,18,-1.00
2012,01,15,11,19,-0.90
2012,01,15,11,20,-0.90
2012,01,15,11,21,-0.80
2012,01,15,11,22,-0.80
2012,01,15,11,23,-0.70
2012,01,15,11,24,-0.70
2012,01,15,11,25,-0.60
2012,01,15,11,26,-0.60
2012,01,15,11,27,-0.50
2012,01,15,11,28,-0.40
2012,01,15,11,29,-0.30
2012,01,15,11,30,-0.30
2012,01,15,11,31,-0.30
2012,01,15,11,32,-0.20
2012,01,15,11,33,-0.20
2012,01,15,11,34,-0.20
2012,01,15,11,35,-0.20
2012,01,15,11,36,-0.20
2012,01,15,11,37,-0.20
2012,01,15,11,38,-0.10
2012,01,15,11,39,-0.10
2012,01,15,11,40,-0.10
2012,01,15,11,41,0.00
2012,01,15,11,42,0.00
2012,01,15,11,43,0.10
2012,01,15,11,44,0.10
2012,01,15,11,45,0.10
2012,01,15,11,46,0.20
2012,01,15,11,47,0.20
2012,01,15,11,48,0.20
2012,01,15,11,49,0.20
2012,01,15,11,50,0.30
2012,01,15,11,51,0.30
2012,01,15,11,52,0.30
2012,01,15,11,53,0.30
2012,01,15,11,54,0.30
2012,01,15,11,55,0.30
2012,01,15,11,56,0.30
2012,01,15,11,57,0.40
2012,01,15,11,58,0.40
2012,01,15,11,59,0.40
2012,01,15,12,00,0.40
2012,01,15,12,01,0.40
2012,01,15,12,02,0.50
2012,01,15,12,03,0.50
2012,01,15,12,04,0.60
2012,01,15,12,05,0.60
2012,01,15,12,06,0.60
2012,01,15,12,07,0.60
2012,01,15,12,08,0.60
2012,01,15,12,09,0.60
2012,01,15,12,10,0.60
2012,01,15,12,11,0.60
2012,01,15,12,12,0.60
2012,01,15,12,13,0.60
2012,01,15,12,14,0.60
2012,01,15,12,15,0.70
2012,01,15,12,16,0.70
2012,01,15,12,17,0.70
2012,01,15,12,18,0.70
2012,01,15,12,19,0.80
2012,01,15,12,20,0.80
2012,01,15,12,21,0.80
2012,01,15,12,22,0.80
2012,01,15,12,23,0.80
2012,01,15,12,24,0.80
2012,01,15,12,25,0.90
2012,01,15,12,26,0.90
2012,01,15,12,27,0.90
2012,01,15,12,28,0.90
2012,01,15,12,29,0.90
2012,01,15,12,30,0.90
2012,01,15,12,31,0.90
2012,01,15,12,32,0.90
2012,01,15,12,33,0.90
2012,01,15,12,34,0.90
2012,01,15,12,35,0.90
2012,01,15,12,36,0.80
2012,01,15,12,37,0.80
2012,01,15,12,38,0.80
2012,01,15,12,39,0.80
2012,01,15,12,40,0.80
2012,01,15,12,41,0.80
2012,01,15,12,42,0.80
2012,01,15,12,43,0.90
2012,01,15,12,44,0.90
2012,01,15,12,45,0.90
2012,01,15,12,46,1.00
2012,01,15,12,47,1.00
2012,01,15,12,48,1.10
2012,01,15,12,49,1.20
2012,01,15,12,50,1.30
2012,01,15,12,51,1.30
2012,01,15,12,52,1.30
2012,01,15,12,53,1.30
2012,01,15,12,54,1.20
2012,01,15,12,55,1.20
2012,01,15,12,56,1.20
2012,01,15,12,57,1.20
2012,01,15,12,58,1.30
2012,01,15,12,59,1.30
2012,01,15,13,00,1.30
2012,01,15,13,01,1.30
2012,01,15,13,02,1.30
2012,01,15,13,03,1.30
2012,01,15,13,04,1.30
2012,01,15,13,05,1.30
2012,01,15,13,06,1.30
2012,01,15,13,07,1.30
2012,01,15,13,08,1.30
2012,01,15,13,09,1.30
2012,01,15,13,10,1.30
2012,01,15,13,11,1.30
2012,01,15,13,12,1.30
2012,01,15,13,13,1.30
2012,01,15,13,14,1.30
2012,01,15,13,15,1.20
2012,01,15,13,16,1.20
2012,01,15,13,17,1.20
2012,01,15,13,18,1.10
2012,01,15,13,19,1.10
2012,01,15,13,20,1.10
2012,01,15,13,21,1.10
2012,01,15,13,22,1.10
2012,01,15,13,23,1.10
2012,01,15,13,24,1.10
2012,01,15,13,25,1.10
2012,01,15,13,26,1.10
2012,01,15,13,27,1.20
2012,01,15,13,28,1.20
2012,01,15,13,29,1.20
2012,01,15,13,30,1.30
2012,01,15,13,31,1.30
2012,01,15,13,32,1.30
2012,01,15,13,33,1.30
2012,01,15,13,34,1.40
2012,01,15,13,35,1.50
2012,01,15,13,36,1.50
2012,01,15,13,37,1.60
2012,01,15,13,38,1.60
2012,01,15,13,39,1.70
2012,01,15,13,40,1.70
2012,01,15,13,41,1.70
2012,01,15,13,42,1.70
2012,01,15,13,43,1.80
2012,01,15,13,44,1.80
2012,01,15,13,45,1.80
2012,01,15,13,46,1.80
2012,01,15,13,47,1.80
2012,01,15,13,48,1.80
2012,01,15,13,49,1.80
2012,01,15,13,50,1.70
2012,01,15,13,51,1.70
2012,01,15,13,52,1.70
2012,01,15,13,53,1.70
2012,01,15,13,54,1.70
2012,01,15,13,55,1.70
2012,01,15,13,56,1.70
2012,01,15,13,57,1.60
2012,01,15,13,58,1.60
2012,01,15,13,59,1.50
2012,01,15,14,00,1.50
2012,01,15,14,01,1.40
2012,01,15,14,02,1.30
2012,01,15,14,03,1.30
2012,01,15,14,04,1.30
2012,01,15,14,05,1.30
2012,01,15,14,06,1.30
2012,01,15,14,07,1.30
2012,01,15,14,08,1.30
2012,01,15,14,09,1.20
2012,01,15,14,10,1.20
2012,01,15,14,11,1.20
2012,01,15,14,12,1.20
2012,01,15,14,13,1.20
2012,01,15,14,14,1.20
2012,01,15,14,15,1.20
2012,01,15,14,16,1.20
2012,01,15,14,17,1.20
2012,01,15,14,18,1.20
2012,01,15,14,19,1.30
2012,01,15,14,20,1.30
2012,01,15,14,21,1.30
2012,01,15,14,22,1.30
2012,01,15,14,23,1.30
2012,01,15,14,24,1.30
2012,01,15,14,25,1.30
2012,01,15,14,26,1.30
2012,01,15,14,27,1.30
2012,01,15,14,28,1.30
2012,01,15,14,29,1.30
2012,01,15,14,30,1.30
2012,01,15,14,31,1.30
2012,01,15,14,32,1.20
2012,01,15,14,33,1.20
2012,01,15,14,34,1.10
2012,01,15,14,35,1.10
2012,01,15,14,36,1.00
2012,01,15,14,37,1.00
2012,01,15,14,38,1.00
2012,01,15,14,39,1.00
2012,01,15,14,40,1.00
2012,01,15,14,41,1.00
2012,01,15,14,42,1.00
2012,01,15,14,43,1.00
2012,01,15,14,44,1.00
2012,01,15,14,45,1.00
2012,01,15,14,46,1.10
2012,01,15,14,47,1.10
2012,01,15,14,48,1.10
2012,01,15,14,49,1.10
2012,01,15,14,50,1.10
2012,01,15,14,51,1.20
2012,01,15,14,52,1.20
2012,01,15,14,53,1.20
2012,01,15,14,54,1.20
2012,01,15,14,55,1.30
2012,01,15,14,56,1.30
2012,01,15,14,57,1.30
2012,01,15,14,58,1.30
2012,01,15,14,59,1.30
2012,01,15,15,00,1.30
2012,01,15,15,01,1.30
2012,01,15,15,02,1.30
2012,01,15,15,03,1.30
2012,01,15,15,04,1.30
2012,01,15,15,05,1.30
2012,01,15,15,06,1.30
2012,01,15,15,07,1.30
2012,01,15,15,08,1.30
2012,01,15,15,09,1.30
2012,01,15,15,10,1.30
2012,01,15,15,11,1.30
2012,01,15,15,12,1.30
2012,01,15,15,13,1.30
2012,01,15,15,14,1.30
2012,01,15,15,15,1.20
2012,01,15,15,16,1.20
2012,01,15,15,17,1.20
2012,01,15,15,18,1.20
2012,01,15,15,19,1.20
2012,01,15,15,20,1.20
2012,01,15,15,21,1.30
2012,01,15,15,22,1.30
2012,01,15,15,23,1.30
2012,01,15,15,24,1.30
2012,01,15,15,25,1.30
2012,01,15,15,26,1.30
2012,01,15,15,27,1.30
2012,01,15,15,28,1.30
2012,01,15,15,29,1.30
2012,01,15,15,30,1.30
2012,01,15,15,31,1.30
2012,01,15,15,32,1.30
2012,01,15,15,33,1.40
2012,01,15,15,34,1.40
2012,01,15,15,35,1.40
2012,01,15,15,36,1.50
2012,01,15,15,37,1.60
2012,01,15,15,38,1.60
2012,01,15,15,39,1.60
2012,01,15,15,40,1.70
2012,01,15,15,41,1.70
2012,01,15,15,42,1.70
2012,01,15,15,43,1.70
2012,01,15,15,44,1.70
2012,01,15,15,45,1.70
2012,01,15,15,46,1.70
2012,01,15,15,47,1.70
2012,01,15,15,48,1.70
2012,01,15,15,49,1.70
2012,01,15,15,50,1.60
2012,01,15,15,51,1.60
2012,01,15,15,52,1.50
2012,01,15,15,53,1.50
2012,01,15,15,54,1.40
2012,01,15,15,55,1.40
2012,01,15,15,56,1.30
2012,01,15,15,57,1.30
2012,01,15,15,58,1.30
2012,01,15,15,59,1.30
2012,01,15,16,00,1.30
2012,01,15,16,01,1.30
2012,01,15,16,02,1.40
2012,01,15,16,03,1.40
2012,01,15,16,04,1.50
2012,01,15,16,05,1.50
2012,01,15,16,06,1.50
2012,01,15,16,07,1.60
2012,01,15,16,08,1.60
2012,01,15,16,09,1.70
2012,01,15,16,10,1.70
2012,01,15,16,11,1.70
2012,01,15,16,12,1.70
2012,01,15,16,13,1.70
2012,01,15,16,14,1.70
2012,01,15,16,15,1.70
2012,01,15,16,16,1.70
2012,01,15,16,17,1.70
2012,01,15,16,18,1.70
2012,01,15,16,19,1.60
2012,01,15,16,20,1.60
2012,01,15,16,21,1.60
2012,01,15,16,22,1.50
2012,01,15,16,23,1.50
2012,01,15,16,24,1.40
2012,01,15,16,25,1.40
2012,01,15,16,26,1.30
2012,01,15,16,27,1.30
2012,01,15,16,28,1.30
2012,01,15,16,29,1.30
2012,01,15,16,30,1.30
2012,01,15,16,31,1.20
2012,01,15,16,32,1.10
2012,01,15,16,33,1.10
2012,01,15,16,34,1.00
2012,01,15,16,35,0.90
2012,01,15,16,36,0.90
2012,01,15,16,37,0.80
2012,01,15,16,38,0.80
2012,01,15,16,39,0.70
2012,01,15,16,40,0.70
2012,01,15,16,41,0.60
2012,01,15,16,42,0.60
2012,01,15,16,43,0.50
2012,01,15,16,44,0.40
2012,01,15,16,45,0.40
2012,01,15,16,46,0.30
2012,01,15,16,47,0.20
2012,01,15,16,48,0.20
2012,01,15,16,49,0.10
2012,01,15,16,50,0.00
2012,01,15,16,51,-0.10
2012,01,15,16,52,-0.10
2012,01,15,16,53,-0.20
2012,01,15,16,54,-0.30
2012,01,15,16,55,-0.40
2012,01,15,16,56,-0.40
2012,01,15,16,57,-0.50
2012,01,15,16,58,-0.60
2012,01,15,16,59,-0.60
2012,01,15,17,00,-0.70
2012,01,15,17,01,-0.70
2012,01,15,17,02,-0.80
2012,01,15,17,03,-0.90
2012,01,15,17,04,-0.90
2012,01,15,17,05,-1.00
2012,01,15,17,06,-1.00
2012,01,15,17,07,-1.10
2012,01,15,17,08,-1.10
2012,01,15,17,09,-1.20
2012,01,15,17,10,-1.20
2012,01,15,17,11,-1.30
2012,01,15,17,12,-1.30
2012,01,15,17,13,-1.40
2012,01,15,17,14,-1.40
2012,01,15,17,15,-1.40
2012,01,15,17,16,-1.50
2012,01,15,17,17,-1.50
2012,01,15,17,18,-1.50
2012,01,15,17,19,-1.60
2012,01,15,17,20,-1.60
2012,01,15,17,21,-1.60
2012,01,15,17,22,-1.70
2012,01,15,17,23,-1.70
2012,01,15,17,24,-1.70
2012,01,15,17,25,-1.70
2012,01,15,17,26,-1.80
2012,01,15,17,27,-1.80
2012,01,15,17,28,-1.80
2012,01,15,17,29,-1.80
2012,01,15,17,30,-1.90
2012,01,15,17,31,-1.90
2012,01,15,17,32,-1.90